Location: Palomar Mountain Lodge
(33.3110°N, 116.8495°W)
Time: 08:24:00
(UTC-07:00)

Cosmos 1378 Rocket - Pass Details

Date: 19 May 2017
Orbit: 602 x 627 km, 82.5° (Epoch: 21 May)

Event Time Altitude Azimuth Distance (km) Brightness Sun altitude
Rises 20:13:15 0° 187° (S) 2,892 6.8 -6.3°
Reaches altitude 10° 20:15:28 10° 187° (S) 1,990 6.0 -6.7°
Maximum altitude 20:19:53 84° 275° (W) 633 3.7 -7.5°
Drops below altitude 10° 20:24:20 10° 5° (N) 2,001 6.5 -8.3°
Sets 20:26:34 0° 6° (N) 2,910 7.4 -8.7°
